Voltar ao catálogo

THOR ABLESTAR DEB

AtivoLEO
NORAD 224·DEBRIS·🇺🇸 United States

Lançado Jun 29, 1961 de Cape Canaveral Space Force Station

Loading…

Próximas Passagens (próximas 24 horas)

TLE

AtualizadoSource: Space-Track

Época: Sep 7, 2026, 12:38 UTC

1 00224U 61015BL  26250.52655360  .00000155  00000-0  12600-3 0  9991
2 00224  66.7364 303.8753 0066094 324.9468 156.5910 14.12176498324146

Acompanhe THOR ABLESTAR DEB em tempo real com AllMySat

Download on the App Store